EW6171 Weather Reports


time (UTC)temp
F
wind
direction
speed
knots
gust
knots
rain 1hr
in
rain 24hr
in
rain mn
in
humidity
%
barometer
mb
20220930161913 77 34 4.3 7.8 0.00 0.00 0.00 56 1015.2
20220930161133 77 44 4.3 7.8 0.00 0.00 0.00 57 1015.2
20220930160632 76 75 5.2 7.8 0.00 0.00 0.00 56 1015.2
20220930160122 76 54 4.3 7.8 0.00 0.00 0.00 56 1015.2
20220930155333 76 96 4.3 8.7 0.00 0.00 0.00 57 1015.2
20220930154544 75 109 4.3 8.7 0.00 0.00 0.00 59 1015.3
20220930154034 75 91 4.3 7.8 0.00 0.00 0.00 59 1015.4
20220930153756 75 105 4.3 7.8 0.00 0.00 0.00 61 1015.3
20220930153245 74 46 4.3 7.8 0.00 0.00 0.00 59 1015.4
20220930151954 74 69 3.5 7.8 0.00 0.00 0.00 62 1015.3
20220930151715 73 86 3.5 8.7 0.00 0.00 0.00 63 1015.3
20220930151207 73 92 3.5 8.7 0.00 0.00 0.00 63 1015.3
20220930150426 72 62 3.5 8.7 0.00 0.00 0.00 64 1015.3
20220930145409 71 71 3.5 7.8 0.00 0.00 0.00 65 1015.3
20220930144902 71 65 3.5 7.8 0.00 0.00 0.00 66 1015.4
20220930144356 70 45 3.5 7.8 0.00 0.00 0.00 67 1015.3
20220930143848 70 59 3.5 7.8 0.00 0.00 0.00 67 1015.3
20220930143344 69 65 3.5 8.7 0.00 0.00 0.00 69 1015.3
20220930142333 68 69 3.5 7.0 0.00 0.00 0.00 70 1015.3
20220930142059 67 61 2.6 7.0 0.00 0.00 0.00 72 1015.2
20220930141318 67 71 2.6 6.1 0.00 0.00 0.00 73 1015.2
20220930140812 66 49 2.6 8.7 0.00 0.00 0.00 73 1015.2
20220930140308 66 52 2.6 8.7 0.00 0.00 0.00 74 1015.2
20220930135755 65 64 1.7 5.2 0.00 0.00 0.00 76 1015.3
20220930135527 65 65 1.7 4.3 0.00 0.00 0.00 77 1015.3
20220930134748 64 61 1.7 4.3 0.00 0.00 0.00 77 1015.3
20220930133503 62 53 0.9 4.3 0.00 0.00 0.00 80 1015.3
20220930132724 62 73 0.9 3.5 0.00 0.00 0.00 81 1015.3
20220930132213 62 51 0.9 3.5 0.00 0.00 0.00 82 1015.3
20220930131709 61 34 0.9 2.6 0.00 0.00 0.00 82 1015.3
20220930131432 60 40 0.0 1.7 0.00 0.00 0.00 83 1015.3
20220930130926 60 52 0.0 1.7 0.00 0.00 0.00 83 1015.3
20220930130423 60 43 0.0 1.7 0.00 0.00 0.00 83 1015.3
20220930125644 59 50 0.0 1.7 0.00 0.00 0.00 83 1015.3
20220930125137 59 56 0.9 2.6 0.00 0.00 0.00 83 1015.3
20220930124622 59 36 0.0 2.6 0.00 0.00 0.00 83 1015.3
20220930124347 58 44 0.0 3.5 0.00 0.00 0.00 83 1015.3
20220930123607 58 56 0.0 3.5 0.00 0.00 0.00 83 1015.2
20220930123101 58 46 0.9 3.5 0.00 0.00 0.00 83 1015.2
20220930122552 59 49 0.9 3.5 0.00 0.00 0.00 83 1015.2
20220930122045 59 48 0.9 4.3 0.00 0.00 0.00 83 1015.1
20220930121027 59 47 0.9 2.6 0.00 0.00 0.00 83 1015.1
20220930120747 59 52 0.9 2.6 0.00 0.00 0.00 83 1015.1
20220930115958 59 42 0.9 3.5 0.00 0.00 0.00 83 1015.0
20220930115720 59 61 0.9 3.5 0.00 0.00 0.00 83 1015.0
20220930114938 59 56 0.9 3.5 0.00 0.00 0.00 83 1015.0
20220930114430 59 50 0.9 3.5 0.00 0.00 0.00 83 1015.0
20220930113917 59 59 0.9 2.6 0.00 0.00 0.00 83 1015.0
20220930113407 59 56 0.9 2.6 0.00 0.00 0.00 83 1014.9
20220930112857 59 45 0.9 3.5 0.00 0.00 0.00 84 1014.9
20220930112347 59 52 0.9 3.5 0.00 0.00 0.00 84 1014.9
20220930111837 59 56 0.9 3.5 0.00 0.00 0.00 84 1015.0
20220930111327 59 54 0.9 3.5 0.00 0.00 0.00 84 1015.0
20220930110817 59 81 0.9 3.5 0.00 0.00 0.00 84 1014.9
20220930110316 59 54 0.9 2.6 0.00 0.00 0.00 84 1014.8
20220930105813 59 56 0.9 3.5 0.00 0.00 0.00 84 1014.8
20220930105301 60 49 0.9 2.6 0.00 0.00 0.00 84 1014.9
20220930105022 60 56 0.9 3.5 0.00 0.00 0.00 84 1014.8
20220930104513 60 42 0.9 3.5 0.00 0.00 0.00 84 1014.8
20220930104003 60 48 0.9 3.5 0.00 0.00 0.00 84 1014.8
20220930103222 60 61 0.9 3.5 0.00 0.00 0.00 84 1014.9
20220930102712 60 47 0.9 3.5 0.00 0.00 0.00 84 1014.9
20220930102201 60 43 0.9 3.5 0.00 0.00 0.00 83 1015.0
20220930101651 60 45 0.9 3.5 0.00 0.00 0.00 83 1014.9
20220930101141 60 48 0.9 3.5 0.00 0.00 0.00 83 1014.9
20220930100854 60 52 0.9 3.5 0.00 0.00 0.00 84 1014.9
20220930100114 60 40 0.9 3.5 0.00 0.00 0.00 84 1014.9
20220930095325 61 44 0.9 3.5 0.00 0.00 0.00 84 1014.9
20220930094544 61 48 0.9 3.5 0.00 0.00 0.00 83 1014.9
20220930094035 61 26 0.9 3.5 0.00 0.00 0.00 83 1014.9
20220930093523 61 38 0.9 2.6 0.00 0.00 0.00 83 1014.8
20220930092504 61 46 0.9 2.6 0.00 0.00 0.00 83 1014.8
20220930091715 61 42 0.9 2.6 0.00 0.00 0.00 84 1014.8
20220930090940 61 42 0.9 3.5 0.00 0.00 0.00 84 1014.8
20220930085920 62 37 0.0 1.7 0.00 0.00 0.00 83 1014.8
20220930085640 62 58 0.0 2.6 0.00 0.00 0.00 83 1014.7
20220930084901 62 24 0.0 1.7 0.00 0.00 0.00 84 1014.8
20220930084349 62 44 0.0 1.7 0.00 0.00 0.00 84 1014.9
20220930084111 62 44 0.0 2.6 0.00 0.00 0.00 84 1014.8
20220930083329 62 36 0.0 2.6 0.00 0.00 0.00 84 1014.9
20220930082823 62 42 0.0 1.7 0.00 0.00 0.00 84 1014.9
20220930082306 63 38 0.0 1.7 0.00 0.00 0.00 84 1014.9
20220930081757 63 43 0.0 1.7 0.00 0.00 0.00 84 1014.9
20220930081245 63 38 0.0 1.7 0.00 0.00 0.00 84 1014.9
20220930080454 63 51 0.9 2.6 0.00 0.00 0.00 85 1014.9
20220930075714 63 54 0.0 2.6 0.00 0.00 0.00 84 1014.9
20220930075436 63 58 0.0 2.6 0.00 0.00 0.00 84 1014.9
20220930074142 64 50 0.9 3.5 0.00 0.00 0.00 84 1014.9
20220930073911 64 59 0.9 3.5 0.00 0.00 0.00 84 1015.0
20220930073401 63 61 0.9 2.6 0.00 0.00 0.00 84 1015.0
20220930072852 63 59 0.0 2.6 0.00 0.00 0.00 84 1014.9
20220930072109 63 62 0.0 2.6 0.00 0.00 0.00 84 1014.9
20220930071047 63 68 0.0 1.7 0.00 0.00 0.00 84 1014.9
20220930070028 64 40 0.0 2.6 0.00 0.00 0.00 84 1015.0
20220930065514 64 44 0.9 2.6 0.00 0.00 0.00 84 1014.9
20220930064957 64 36 0.9 2.6 0.00 0.00 0.00 84 1014.9
20220930064449 64 33 0.9 2.6 0.00 0.00 0.00 84 1014.9
20220930063932 64 38 0.0 2.6 0.00 0.00 0.00 84 1014.9
20220930063426 64 41 0.0 1.7 0.00 0.00 0.00 84 1014.9
20220930062359 64 30 0.0 1.7 0.00 0.00 0.00 84 1014.9
20220930062121 64 37 0.0 2.6 0.00 0.00 0.00 84 1014.9
20220930061332 64 36 0.0 2.6 0.00 0.00 0.00 84 1014.9
20220930060813 64 39 0.0 1.7 0.00 0.00 0.00 84 1014.9
20220930060303 64 37 0.0 0.0 0.00 0.00 0.00 84 1015.1
20220930055753 64 29 0.0 0.0 0.00 0.00 0.00 84 1015.1
20220930055241 65 79 0.0 0.0 0.00 0.00 0.00 84 1015.0
20220930054955 65 78 0.0 0.0 0.00 0.00 0.00 84 1015.0
20220930054214 65 76 0.0 0.0 0.00 0.00 0.00 84 1015.0
20220930053703 65 78 0.0 0.0 0.00 0.00 0.00 84 1015.0
20220930053153 65 79 0.0 0.0 0.00 0.00 0.00 84 1015.0
20220930052135 65 79 0.0 0.0 0.00 0.00 0.00 84 1015.0
20220930051624 65 79 0.0 1.7 0.00 0.00 0.00 84 1015.0
20220930051113 65 80 0.0 1.7 0.00 0.00 0.00 84 1015.1
20220930050608 65 80 0.0 1.7 0.00 0.00 0.00 84 1015.1
20220930045315 65 63 0.9 2.6 0.00 0.00 0.00 84 1015.2
20220930044541 65 61 0.9 2.6 0.00 0.00 0.00 83 1015.2
20220930044022 66 52 0.0 1.7 0.00 0.00 0.00 83 1015.3
20220930043514 67 51 0.0 1.7 0.00 0.00 0.00 83 1015.3
20220930043241 67 83 0.0 0.0 0.00 0.00 0.00 83 1015.3
20220930042735 67 84 0.0 0.0 0.00 0.00 0.00 83 1015.3
20220930042004 67 84 0.0 0.0 0.00 0.00 0.00 83 1015.3
20220930041454 67 84 0.0 0.0 0.00 0.00 0.00 83 1015.3
20220930040445 67 79 0.0 0.0 0.00 0.00 0.00 83 1015.4
20220930040211 67 81 0.0 0.0 0.00 0.00 0.00 82 1015.4
20220930035707 67 85 0.0 0.0 0.00 0.00 0.00 82 1015.3
20220930034427 67 91 0.0 0.0 0.00 0.00 0.00 82 1015.3
20220930034154 68 91 0.0 0.0 0.00 0.00 0.00 82 1015.3
20220930033422 68 91 0.0 0.0 0.00 0.00 0.00 81 1015.3
20220930032913 68 91 0.0 0.0 0.00 0.00 0.00 80 1015.4
20220930032413 69 91 0.0 0.0 0.00 0.00 0.00 80 1015.3
20220930031904 69 91 0.0 0.0 0.00 0.00 0.00 80 1015.3
20220930031121 69 211 0.0 0.0 0.00 0.00 0.00 78 1015.3
20220930030338 70 211 0.0 0.0 0.00 0.00 0.00 78 1015.3
20220930025832 70 211 0.0 0.0 0.00 0.00 0.00 77 1015.3
20220930025324 70 211 0.0 0.9 0.00 0.00 0.00 77 1015.3
20220930024312 71 211 0.0 2.6 0.00 0.00 0.00 77 1015.2
20220930023805 71 175 0.0 3.5 0.00 0.00 0.00 77 1015.2
20220930023526 71 175 0.9 3.5 0.00 0.00 0.00 77 1015.2
20220930023020 71 175 0.9 1.7 0.00 0.00 0.00 77 1015.2
20220930022238 71 175 0.0 1.7 0.00 0.00 0.00 76 1015.2
20220930021730 71 165 0.0 1.7 0.00 0.00 0.00 76 1015.2
20220930021221 71 165 0.0 1.7 0.00 0.00 0.00 77 1015.2
20220930020713 71 165 0.0 2.6 0.00 0.00 0.00 77 1015.2
20220930020204 71 171 0.0 2.6 0.00 0.00 0.00 78 1015.2
20220930015654 71 146 0.9 4.3 0.00 0.00 0.00 77 1015.2
20220930015145 71 150 0.9 4.3 0.00 0.00 0.00 77 1015.2
20220930014634 71 154 0.9 3.5 0.00 0.00 0.00 77 1015.1
20220930014356 71 144 0.9 2.6 0.00 0.00 0.00 76 1015.1
20220930013845 72 167 0.9 2.6 0.00 0.00 0.00 76 1015.0
20220930012553 72 142 0.9 3.5 0.00 0.00 0.00 76 1014.9
20220930012043 72 187 0.9 3.5 0.00 0.00 0.00 76 1015.0
20220930011533 72 141 0.9 2.6 0.00 0.00 0.00 74 1014.9
20220930011023 72 141 0.9 2.6 0.00 0.00 0.00 73 1014.8
20220930010513 73 150 0.9 2.6 0.00 0.00 0.00 73 1014.8
20220930010005 73 150 0.9 2.6 0.00 0.00 0.00 73 1014.8
20220930005453 73 127 0.9 3.5 0.00 0.00 0.00 73 1014.7
20220930004952 74 129 0.9 3.5 0.00 0.00 0.00 72 1014.7
20220930004442 74 141 0.9 3.5 0.00 0.00 0.00 71 1014.7
20220930003944 74 142 0.9 3.5 0.00 0.00 0.00 71 1014.7
20220930003211 75 163 0.9 2.6 0.00 0.00 0.00 68 1014.8
20220930002707 76 139 0.9 3.5 0.00 0.00 0.00 68 1014.8
20220930001937 76 155 0.9 4.3 0.00 0.00 0.00 67 1014.7
20220930001428 76 173 1.7 5.2 0.00 0.00 0.00 66 1014.7
20220930001148 77 173 1.7 5.2 0.00 0.00 0.00 65 1014.7
20220930000139 78 176 2.6 5.2 0.00 0.00 0.00 62 1014.7
20220929235357 79 172 2.6 6.1 0.00 0.00 0.00 62 1014.7
20220929234847 79 171 3.5 6.1 0.00 0.00 0.00 62 1014.7
20220929234609 80 167 4.3 7.8 0.00 0.00 0.00 62 1014.7
20220929233826 80 163 4.3 7.8 0.00 0.00 0.00 60 1014.6
20220929233317 81 163 4.3 7.8 0.00 0.00 0.00 60 1014.7
20220929233036 81 149 4.3 7.8 0.00 0.00 0.00 59 1014.7
20220929231744 82 167 4.3 7.0 0.00 0.00 0.00 55 1014.7
20220929231257 83 151 4.3 7.0 0.00 0.00 0.00 55 1014.7
20220929230733 83 167 4.3 7.0 0.00 0.00 0.00 55 1014.7
20220929230223 83 171 4.3 6.1 0.00 0.00 0.00 53 1014.7
20220929225714 83 188 5.2 7.8 0.00 0.00 0.00 52 1014.8
20220929225435 83 160 6.1 7.8 0.00 0.00 0.00 52 1014.9
20220929224645 84 167 5.2 8.7 0.00 0.00 0.00 52 1014.9
20220929224407 84 168 5.2 8.7 0.00 0.00 0.00 51 1014.9
20220929223626 84 185 5.2 7.8 0.00 0.00 0.00 51 1015.0
20220929223347 84 172 5.2 8.7 0.00 0.00 0.00 51 1015.0
20220929222318 85 178 5.2 8.7 0.00 0.00 0.00 51 1015.0
20220929221538 85 181 4.3 8.7 0.00 0.00 0.00 50 1015.1
20220929220518 85 150 6.1 8.7 0.00 0.00 0.00 49 1015.2
20220929220008 85 167 5.2 9.6 0.00 0.00 0.00 49 1015.2
20220929215455 86 182 4.3 9.6 0.00 0.00 0.00 49 1015.3
20220929214945 86 197 3.5 6.1 0.00 0.00 0.00 47 1015.3
20220929214435 87 213 3.5 5.2 0.00 0.00 0.00 47 1015.4
20220929213918 87 38 4.3 8.7 0.00 0.00 0.00 39 1015.4
20220929213409 87 56 4.3 8.7 0.00 0.00 0.00 40 1015.4
20220929212620 87 97 1.7 5.2 0.00 0.00 0.00 41 1015.5
20220929211837 87 44 2.6 8.7 0.00 0.00 0.00 39 1015.6
20220929211608 87 68 1.7 8.7 0.00 0.00 0.00 39 1015.6
20220929210316 87 32 3.5 9.6 0.00 0.00 0.00 39 1015.7
20220929205814 87 331 4.3 9.6 0.00 0.00 0.00 38 1015.8
20220929205306 87 10 3.5 7.0 0.00 0.00 0.00 40 1015.8
20220929204520 87 5 2.6 6.1 0.00 0.00 0.00 39 1016.0
20220929203734 87 295 2.6 7.0 0.00 0.00 0.00 40 1016.0
20220929203225 87 311 1.7 5.2 0.00 0.00 0.00 40 1016.1
20220929202944 86 281 1.7 4.3 0.00 0.00 0.00 44 1016.2
20220929202438 86 212 2.6 7.0 0.00 0.00 0.00 43 1016.3
20220929201926 86 121 2.6 8.7 0.00 0.00 0.00 43 1016.3
20220929201148 86 175 0.9 8.7 0.00 0.00 0.00 42 1016.4
20220929200637 86 237 1.7 4.3 0.00 0.00 0.00 43 1016.6
20220929195621 86 77 4.3 9.6 0.00 0.00 0.00 42 1016.9
20220929195116 86 90 3.5 7.8 0.00 0.00 0.00 42 1016.9
20220929194608 86 350 2.6 7.8 0.00 0.00 0.00 44 1017.0
20220929194102 85 356 1.7 5.2 0.00 0.00 0.00 42 1017.2
20220929193551 85 125 2.6 7.8 0.00 0.00 0.00 44 1017.2
20220929193046 85 94 4.3 8.7 0.00 0.00 0.00 43 1017.3
20220929192538 85 59 2.6 8.7 0.00 0.00 0.00 44 1017.5
20220929192033 84 63 4.3 9.6 0.00 0.00 0.00 44 1017.6
20220929191527 85 68 6.1 9.6 0.00 0.00 0.00 44 1017.7
20220929191025 85 64 4.3 9.6 0.00 0.00 0.00 44 1017.8
20220929190521 85 69 3.5 8.7 0.00 0.00 0.00 47 1017.8
20220929190023 85 74 5.2 9.6 0.00 0.00 0.00 46 1017.9
20220929185510 85 63 5.2 9.6 0.00 0.00 0.00 47 1018.0
20220929185018 84 90 6.1 9.6 0.00 0.00 0.00 46 1018.1
20220929183950 84 52 3.5 8.7 0.00 0.00 0.00 46 1018.4
20220929183442 84 66 3.5 9.6 0.00 0.00 0.00 48 1018.4
20220929182940 84 23 3.5 8.7 0.00 0.00 0.00 48 1018.5
20220929182434 84 41 3.5 9.6 0.00 0.00 0.00 48 1018.6
20220929182205 83 24 4.3 8.7 0.00 0.00 0.00 45 1018.7
20220929181428 83 354 5.2 9.6 0.00 0.00 0.00 45 1018.8
20220929181156 83 56 4.3 9.6 0.00 0.00 0.00 46 1018.9
20220929180650 83 71 4.3 9.6 0.00 0.00 0.00 46 1019.0
20220929175916 83 42 4.3 9.6 0.00 0.00 0.00 47 1019.1
20220929175405 83 56 3.5 7.8 0.00 0.00 0.00 48 1019.2
20220929175131 83 329 5.2 0.0 0.00 0.00 0.00 46 1019.3
20220929174028 83 108 5.2 8.7 0.00 0.00 0.00 50 1019.4
20220929173521 83 75 3.5 8.7 0.00 0.00 0.00 50 1019.5
20220929173013 82 60 3.5 7.8 0.00 0.00 0.00 50 1019.6
20220929172508 82 5 5.2 8.7 0.00 0.00 0.00 49 1019.6
20220929172227 82 43 5.2 8.7 0.00 0.00 0.00 51 1019.7
20220929171451 82 21 4.3 9.6 0.00 0.00 0.00 53 1019.8
20220929170942 82 46 5.2 9.6 0.00 0.00 0.00 52 1019.8
20220929170435 82 87 5.2 7.8 0.00 0.00 0.00 55 1019.8
20220929165931 82 5 4.3 10.4 0.00 0.00 0.00 53 1019.8
20220929165421 82 43 4.3 10.4 0.00 0.00 0.00 53 1019.9
20220929165142 81 65 4.3 9.6 0.00 0.00 0.00 54 1020.0
20220929164632 81 23 5.2 10.4 0.00 0.00 0.00 54 1020.0
20220929164123 81 38 5.2 10.4 0.00 0.00 0.00 56 1020.1
20220929163341 80 41 4.3 8.7 0.00 0.00 0.00 58 1020.2
20220929162830 80 29 5.2 8.7 0.00 0.00 0.00 58 1020.2